World > North America > United States > Pennsylvania

Colmar, Pennsylvania Regional Weather

Lat: 40.27N, Lon: 75.25W
Wx Zone: PAZ068Web Search

Helpful Tip: Type the letters wx in the search engine next time you need to find us.

Feedback


°F Click to change Colmar hourly weather to Imperial units.Click to change Colmar hourly weather to Metric units. °C
Colmar Weather Map
UTC Time: 5/7/2021, 13:31
Your Time:

Colmar, PA Regional Weather

Expires:202105071400;;735883
ASUS41 KPHI 071312
RWRPHI

REGIONAL WEATHER ROUNDUP
NATIONAL WEATHER SERVICE MOUNT HOLLY NJ
900 AM EDT FRI MAY 07 2021

NOTE:  "FAIR" INDICATES FEW OR NO CLOUDS BELOW 12,000 FEET WITH NO
SIGNIFICANT WEATHER AND/OR OBSTRUCTIONS TO VISIBILITY.

 * = STATION DOES NOT REPORT PRECIPITATION (E.G. RAIN, SNOW, ETC.) 
        OR FOG.


PAZ043-044-047-054-055-060>062-066>071-071400-
EASTERN PENNSYLVANIA
  
CITY           SKY/WX    TMP DP  RH WIND       PRES   REMARKS
PHILADELPHIA   PTSUNNY   56  32  40 NE7G16    29.92S                  
NORTH PHILA    MOSUNNY   56  34  43 NE8       29.93S                  
BLUE BELL*     MOSUNNY   56  36  47 E7        29.92F                  
DOYLESTOWN     MOSUNNY   57  32  38 NE7       29.91F                  
QUAKERTOWN*    SUNNY     54  32  43 NE7       29.92F                  
PERKASIE*      FAIR      52  32  46 E8        29.93S                  
POTTSTOWN      MOSUNNY   53  32  44 NE8       29.94S                  
LANCASTER      PTSUNNY   53  37  54 E6        29.91F                  
COATESVILLE    MOSUNNY   52  34  50 NE5       29.92F                  
WEST CHESTER   FAIR      55  32  41 E3        29.92S                  
READING        MOSUNNY   56  30  37 VRB6      29.90F                  
ALLENTOWN      MOSUNNY   53  32  44 NE14      29.92F                  
QN CITY/ALNTWN FAIR      54  32  43 NE10      29.93F                  
MOUNT POCONO   SUNNY     47  27  45 E12G18    29.91S                  
HAZLETON       MOSUNNY   50  27  40 E6        29.93F                  
LEHIGHTON      FAIR      52  32  46 NE5       29.94F                  
WILKES BARRE   SUNNY     54  32  43 N7        29.91F                  

$$

SKY/WX - Weather  TMP - Temperature  DP - Dew Point  RH - Relative Humidity
WIND - Wind Direction/Speed PRES - Barometric Pressure VSB - Visibility
WCI - Wind Chill Index E13G22 Wind - East Wind 13 mph/Gusts of 22 mph